Regional Weather Roundup
Issued by NWS

Home | Current Version | Previous Version | Text Only | Print | Product List | Glossary On
Versions: 1 2 3 4 5 6 7 8 9 10 11 12 13 14 15 16 17 18 19 20 21 22 23 24 25 26 27 28 29 30 31 32 33 34 35 36 37 38 39 40 41 42 43 44 45 46 47 48 49 50
810
ASUS43 KMPX 170501
RWRMN
WEATHER ROUNDUP FOR MINNESOTA
NATIONAL WEATHER SERVICE TWIN CITIES/CHANHASSEN MN
1100 PM CST MON JAN 16 2017


NOTE: "FAIR" INDICATES FEW OR NO CLOUDS BELOW 12,000 FEET WITH NO
SIGNIFICANT WEATHER AND/OR OBSTRUCTIONS TO VISIBILITY. N/A MEANS
CURRENT SKY AND/OR WEATHER CONDITIONS ARE NOT AVAILABLE.

MNZ060>063-068>070-170600-
   Twin Cities Metro

CITY           SKY/WX    TMP DP  RH WIND       PRES   REMARKS
TWIN CITIES    FRZ RAIN  30  26  85 N8        29.97S FOG     WCI  22
ST PAUL        FRZ RAIN  30  30 100 NW9       29.98S FOG     WCI  22
CRYSTAL        CLOUDY    29  20  69 N6        29.97S WCI  23
BLAINE         MIX PCPN  30  25  80 N5        29.97F WCI  25
LAKEVILLE      MIX PCPN  30  30 100 N3        29.95S
EDEN PRAIRIE   FRZ RAIN  30  25  81 N7        29.95S WCI  23
SOUTH ST PAUL  MIX PCPN  32  31  97 N6        29.95F WCI  26
LAKE ELMO      MIX PCPN  32  32 100 N7        29.97S WCI  26
$$
MNZ001>005-007-008-013>017-022>024-027-028-170600-
   Northwest Minnesota

CITY           SKY/WX    TMP DP  RH WIND       PRES   REMARKS
BEMIDJI        CLOUDY     6   4  91 W3        29.98F
HALLOCK        CLOUDY     5   1  85 S3        30.02S
ROSEAU         CLOUDY     3   0  85 CALM      30.00S
WARROAD        CLOUDY     1  -2  85 SW3       29.99F
THIEF RVR FALL CLOUDY     4   1  88 S3        30.01S FOG
CROOKSTON      CLOUDY     7   3  85 CALM      30.03S
FOSSTON        CLOUDY     3   0  85 CALM      29.99F
DETROIT LAKES  CLOUDY    10  10 100 CALM      30.00S
MOORHEAD       CLOUDY     7   1  78 CALM      30.03S
PARK RAPIDS    FOG        1  -3  83 CALM      29.97F VSB 1/4
MAHNOMEN       FAIR       8   5  89 S5        29.99F WCI  -1
$$
MNZ006-009>011-018-025>026-170600-
   North Central Minnesota

CITY           SKY/WX    TMP DP  RH WIND       PRES   REMARKS
BAUDETTE       CLOUDY     1  -3  83 S3        29.97F
FLAG ISLAND    CLEAR      3   1  92 CALM      29.99S
INTL FALLS     CLOUDY     6   0  76 CALM      29.98F
WASKISH        CLOUDY     9   7  92 CALM      29.98F
BIG FORK       CLOUDY    10   7  85 CALM      29.98S
LONGVILLE      CLOUDY    10   9  92 CALM      29.99S FOG
GRAND RAPIDS   CLOUDY    13  12  96 CALM      30.01S
CRANE LAKE     CLEAR      3   1  92 CALM      30.02S
ORR            CLOUDY     7   3  85 CALM      29.96F
COOK           CLOUDY     9   7  92 CALM      29.99F
WALKER         FAIR      14  13  94 CALM      29.98S FOG
$$
MNZ012-019>021-037-170600-
   Northeast Minnesota

CITY           SKY/WX    TMP DP  RH WIND       PRES   REMARKS
DULUTH         CLOUDY    20  15  81 CALM      29.98S
ELY            CLOUDY     9   7  92 CALM      29.99F
HIBBING        CLOUDY     5   4  95 CALM      29.99S FOG
EVELETH        CLOUDY    10   6  87 CALM      30.00S
DULUTH HARBOR  CLOUDY    21  19  93 CALM      30.02F
TWO HARBORS    CLOUDY    23  18  80 CALM      29.98F
SILVER BAY     CLOUDY    18  16  93 CALM      29.99S
GRAND MARAIS     N/A     23  21  92 N5        30.03F WCI  17
G MARAIS ARPRT FOG       19  16  86 CALM      29.98F VSB<1/4
$$
MNZ029>031-032-039>041-046>048-054>057-064-170600-
   West Central Minnesota

CITY           SKY/WX    TMP DP  RH WIND       PRES   REMARKS
FERGUS FALLS   CLOUDY     9   7  92 CALM      30.07S
WHEATON        CLOUDY    10   9  92 W3        30.05F
MORRIS         CLOUDY    10   7  85 NW5       30.01R FOG     WCI   2
ALEXANDRIA     CLOUDY    11  10  96 CALM      29.99S FOG
ELBOW LAKE     FAIR       8   6  93 CALM      30.01F FOG
WADENA         CLOUDY     7   5  92 CALM      29.99S FOG
GLENWOOD       CLOUDY    23  21  93 NW3       29.99S FOG
APPLETON       CLOUDY    21  18  86 N5        30.02S WCI  15
ORTONVILLE     CLOUDY     9   5  85 CALM      30.02S FOG
MADISON        CLOUDY    21  18  86 N5        30.02S WCI  15
WILLMAR        CLOUDY    30  30 100 CALM      30.00S FOG
$$
MNZ033>034-036-042>043-049>051-058-059-170600-
   Central Minnesota

CITY           SKY/WX    TMP DP  RH WIND       PRES   REMARKS
ST CLOUD       CLOUDY    23  20  88 N3        29.99F FOG
SAUK CENTRE    CLOUDY    27  27  99 N3        29.99F FOG
PAYNESVILLE    CLOUDY    29  29 100 CALM      29.99S FOG
AITKIN         PTCLDY    12   9  85 CALM      29.98S
PINE RIVER     CLOUDY     9   7  92 CALM      30.02F FOG
BRAINERD       PTCLDY    12  10  92 CALM      29.99F FOG
STAPLES        CLOUDY     9   7  92 CALM      29.99F FOG
LONG PRAIRIE   CLOUDY    27  23  86 CALM      30.00S
LITTLE FALLS   CLOUDY    28  23  80 CALM      30.00F
LITCHFIELD     CLOUDY    30  27  86 N3        29.98F
BUFFALO        CLOUDY    28  21  76 N6        29.99F WCI  21
MAPLE LAKE     CLOUDY    28  24  82 N5        29.99F WCI  23
HUTCHINSON     CLOUDY    30  25  81 N3        29.98S
$$
MNZ037-044-045-052-053-170600-
   East Central Minnesota

CITY           SKY/WX    TMP DP  RH WIND       PRES   REMARKS
PRINCETON      CLOUDY    27  21  80 CALM      29.98F
MORA           CLOUDY    19  16  86 NW3       30.01S
CAMBRIDGE      CLOUDY    28  19  69 CALM      29.97F
RUSH CITY      CLOUDY    28  21  74 CALM      29.99F
MOOSE LAKE     CLOUDY    19  16  86 CALM      29.98S
HINCKLEY       FAIR      23  19  86 N3        29.99S
CLOQUET        CLOUDY    18  14  86 N5        29.98S WCI  11
MCGREGOR       CLOUDY    14  12  92 CALM      29.99F
$$
MNZ071>073-080-081-089-090-097-098-170600-
   Southwest Minnesota

CITY           SKY/WX    TMP DP  RH WIND       PRES   REMARKS
MONTEVIDEO     FOG       25  23  93 NW6       30.02S VSB 3/4 WCI  18
GRANITE FALLS  FOG       28  28  96 NW8       30.01F VSB 1   WCI  20
CANBY            N/A     22  19  85 CALM      30.02S
MARSHALL       MIX PCPN  23  21  93 NW13      30.00S FOG     WCI  11
REDWOOD FALLS  CLOUDY    31  28  89 N6        29.98S FOG     WCI  25
OLIVIA         CLOUDY    32  28  86 N8        29.98S WCI  25
PIPESTONE      CLOUDY    28  28 100 N5        29.95F FOG     WCI  23
WINDOM         MIX PCPN  30  30 100 NW12      29.95S WCI  21
WORTHINGTON    MIX PCPN  28  27  96 N15       29.95S FOG     WCI  16
JACKSON        MIX PCPN  30  30 100 CALM      29.94S
TRACY          FOG       26  26  98 NW8       29.98S VSB 1/2 WCI  18
SLAYTON        FOG       25  24  99 N10       29.97R VSB 1/2 WCI  15
$$
MNZ065>067-074>077-082>085-091>093-170600-
   South Central Minnesota

CITY           SKY/WX    TMP DP  RH WIND       PRES   REMARKS
MANKATO        MIX PCPN  31  30  96 N10       29.95R FOG     WCI  22
NEW ULM        LGT SNOW  30  28  93 N3        29.95F
ST JAMES       LGT SNOW  30  30 100 NW6       29.96S WCI  24
FAIRMONT       LGT SNOW  31  30  96 N12       29.94R FOG     WCI  22
GLENCOE        CLOUDY    30  26  84 N7        29.96F WCI  23
FARIBAULT      RAIN      30  30 100 N6        29.93F WCI  24
OWATONNA       MIX PCPN  32  30  93 CALM      29.92S
WASECA         LGT SNOW  32  32 100 N5        29.93F WCI  27
ALBERT LEA     MIX PCPN  34  32  93 CALM      29.90S
$$
MNZ078>079-086>088-094>096-170600-
   Southeast Minnesota

CITY           SKY/WX    TMP DP  RH WIND       PRES   REMARKS
ROCHESTER      CLOUDY    32  32 100 NE8       29.89F FOG     WCI  25
RED WING       MIX PCPN  34  30  86 CALM      29.94S
STANTON        RAIN      32  31  95 NE6       29.93S WCI  26
DODGE CENTER   MIX PCPN  32  30  93 CALM      29.90S
WINONA         MIX PCPN  32  32 100 CALM      29.93F
AUSTIN         CLOUDY    32  30  93 CALM      29.89F FOG
PRESTON        CLOUDY    31  30  96 NE3       29.89F FOG
$$
ABBREVIATIONS USED IN REMARKS
   TC - TEMPERATURES IN CELSIUS
  WCI - WIND CHILL INDEX
   HX - HEAT INDEX
  VSB - VISIBILITY
$$




USA.gov is the U.S. government's official web portal to all federal, state and local government web resources and services.